#timestamp,LO_Frequency,Hit,StdDev 
1544544015.9,286046993.3,N
1544544035.7,286046991.8,N
1544544055.6,286046998.4,N
1544544075.4,286047000.7,N
1544544095.2,286046997.2,N
1544544115.1,286046993.9,N
1544544116.0,286046993.9,N
1544544135.8,286046990.8,N
1544544155.6,286046990.4,N
1544544175.5,286046989.2,N
1544544195.3,286046984.1,Y
1544544215.2,286046986.0,P
1544544235.9,286046985.2,N
1544544255.7,286046982.0,P
1544544275.6,286046978.5,Y
1544544295.4,286046985.5,P
1544544315.3,286046988.1,P
1544544335.1,286046994.3,P
1544544336.0,286046994.3,N
1544544355.8,286046996.7,N
1544544375.7,286047001.7,N
1544544395.5,286047003.6,N
1544544415.3,286047009.3,N
1544544435.2,286047012.6,N
1544544455.0,286047013.6,N
1544544455.9,286047013.6,N
1544544475.8,286047008.2,N
1544544495.6,286047010.5,N
1544544515.4,286047013.7,N
1544544535.3,286047012.9,N
1544544555.1,286047015.5,N
1544544575.8,286047011.5,N
1544544595.7,286047006.3,N
1544544615.5,286047005.1,N
1544544635.4,286047005.0,N
1544544655.2,286047006.9,N
1544544675.0,286047003.3,N
1544544675.9,286047003.3,N
1544544695.8,286047003.5,N
1544544715.6,286047002.5,N
1544544735.4,286047000.6,N
1544544755.3,286047001.5,N
1544544775.1,286047004.5,N
1544544795.9,286047004.6,N
1544544815.7,286047005.1,N
1544544835.5,286047002.6,N
1544544855.4,286047003.2,N
1544544875.2,286047002.6,N
1544544895.0,286046999.3,N
1544544895.9,286046999.3,N
1544544915.8,286046995.9,N
1544544935.6,286046995.5,N
1544544955.5,286046995.7,N
1544544975.3,286046994.9,N
1544544995.1,286046999.1,N
1544545015.9,286047003.8,N
1544545035.7,286047006.3,N
1544545055.5,286047010.6,N
1544545075.4,286047007.8,N
1544545095.2,286047009.6,N
1544545115.1,286047010.4,N
1544545116.0,286047010.4,N
1544545135.8,286047006.6,N
1544545155.6,286047005.7,N
1544545175.5,286047007.3,N
1544545195.3,286047008.8,N
1544545215.1,286047012.3,N
1544545235.9,286047012.0,N
1544545255.7,286047011.9,N
1544545275.6,286047014.7,N
1544545295.4,286047017.0,Y
1544545315.2,286047013.1,P
1544545335.1,286047014.2,P
1544545336.0,286047014.2,P
1544545355.8,286047020.4,Y
1544545375.6,286047006.5,P
1544545395.5,286047001.7,N
1544545415.3,286047004.1,N
1544545435.2,286047004.0,N
1544545455.9,286047003.1,N
1544545475.7,286047004.5,N
1544545495.6,286047006.3,N
1544545515.4,286047008.1,N
1544545535.2,286047007.5,N
1544545555.1,286047001.4,N
1544545556.0,286047001.4,N
1544545575.8,286047001.3,N
1544545595.7,286047004.4,N
1544545615.5,286047005.5,N
1544545635.3,286047007.0,N
1544545655.2,286047005.6,N
1544545675.9,286046999.0,N
1544545695.7,286046993.4,N
1544545715.6,286046993.1,N
1544545735.4,286046988.6,N
1544545755.2,286046994.8,N
1544545775.1,286046994.8,N
1544545776.0,286046994.8,N
1544545795.8,286046994.8,N
1544545815.7,286046991.7,N
1544545835.5,286046988.6,N
1544545855.3,286046987.7,N
1544545875.2,286046987.2,N
1544545895.9,286046987.0,N
1544545915.7,286046988.5,N
1544545935.6,286046989.1,N
1544545955.4,286046994.1,N
1544545975.3,286046997.6,N
1544545995.1,286046995.6,N
1544545996.0,286046995.6,N
1544546015.8,286046998.0,N
1544546035.7,286046996.3,N
1544546055.5,286046993.7,N
1544546075.3,286046998.3,N
1544546095.2,286046999.9,N
1544546115.0,286047005.7,N
1544546115.9,286047005.7,N
1544546135.8,286047004.6,N
1544546155.6,286047009.1,N
1544546175.4,286047006.5,N
1544546195.3,286047010.3,N
1544546215.1,286047012.5,N
1544546235.8,286047014.8,N
1544546255.7,286047011.3,N
1544546275.5,286047009.4,N
1544546295.4,286047008.6,N
1544546315.2,286047003.5,N
1544546335.0,286047000.7,N
1544546335.9,286047000.7,N
1544546355.8,286046998.4,N
1544546375.6,286047001.6,N
1544546395.4,286047002.8,N
1544546415.3,286047000.2,N
1544546435.1,286046997.6,N
1544546455.9,286046992.1,N
1544546475.7,286046992.6,N
1544546495.5,286046993.5,N
1544546515.4,286046990.4,N
1544546535.2,286046985.9,N
1544546555.0,286046982.5,N
1544546555.9,286046982.5,N
1544546575.8,286046979.3,N
1544546595.6,286046980.6,N
1544546615.4,286046982.4,N
1544546635.3,286046983.7,N
1544546655.1,286046989.2,N
1544546675.9,286046987.4,N
1544546695.7,286046989.4,N
1544546715.5,286046990.5,N
1544546735.4,286046993.2,N
1544546755.2,286046994.4,N
1544546775.0,286046992.0,N
1544546775.9,286046992.0,N
1544546795.8,286046993.0,N
1544546815.6,286046996.4,N
1544546835.5,286046998.4,N
1544546855.3,286047001.6,N
1544546875.1,286047009.8,N
1544546895.9,286047013.1,N
1544546915.7,286047009.5,N
1544546935.5,286047012.1,N
1544546955.4,286047010.4,N
1544546975.2,286047009.2,N
1544546995.0,286047010.3,N
1544546995.9,286047010.3,N
1544547015.8,286047014.9,N
1544547035.6,286047017.7,N
1544547055.5,286047017.9,N
1544547075.3,286047017.5,N
1544547095.1,286047021.4,N
1544547115.9,286047020.9,N
1544547135.7,286047021.7,N
1544547155.5,286047024.7,N
1544547175.4,286047027.3,N
1544547195.2,286047027.8,N
1544547215.1,286047027.0,N
1544547216.0,286047027.0,N
1544547235.8,286047032.6,N
1544547255.6,286047034.2,N
1544547275.5,286047030.9,N
1544547295.3,286047029.0,N
1544547315.2,286047028.4,N
1544547335.9,286047019.1,N
1544547355.7,286047017.5,N
1544547375.6,286047017.6,N
1544547395.4,286047016.1,N
1544547415.2,286047015.2,N
1544547435.1,286047018.2,N
1544547436.0,286047018.2,N
1544547455.8,286047014.9,N
1544547475.7,286047015.7,N
1544547495.5,286047015.0,N
1544547515.3,286047011.4,N
1544547535.2,286047009.4,N
1544547555.0,286047014.8,N
1544547555.9,286047014.8,N
1544547575.7,286047017.7,N
1544547595.6,286047019.0,N
